Location: Brantley
(31.5822°N, 86.2569°W)
Time: 01:48:03
(UTC+00:00)

Courier 1B Rocket - Pass Details

Date: 22 February 2026
Orbit: 920 x 1201 km, 28.2° (Epoch: 10 March)

Event Time Altitude Azimuth Distance (km) Brightness Sun altitude
Rises 01:39:40 0° 267° (W) 3,546 9.2 -26.8°
Reaches altitude 10° 01:42:16 10° 264° (W) 2,604 8.2 -27.4°
Maximum altitude 01:48:26 65° 184° (S) 1,019 5.0 -28.7°
Enters shadow 01:48:34 64° 176° (S) 1,021 4.9 -28.7°
Drops below altitude 10° 01:54:48 10° 104° (ESE) 2,695 - -30.0°
Sets 01:57:32 0° 101° (E) 3,678 - -30.6°
